Location: Prairie View Elementary School
(39.8322°N, 99.5698°W)
Time: 16:37:16
(UTC+00:00)

COSMOS 2428 - Pass Details

Date: 08 December 2019
Orbit: 844 x 858 km, 70.9° (Epoch: 22 January)

Event Time Altitude Azimuth Distance (km) Brightness Sun altitude
Rises 23:59:59 0° 212° (SSW) 3,387 6.8 -8.9°
Reaches altitude 10° 00:02:27 10° 215° (SW) 2,457 6.1 -9.3°
Maximum altitude 00:08:02 61° 296° (WNW) 954 3.2 -10.3°
Drops below altitude 10° 00:13:40 10° 17° (NNE) 2,479 4.8 -11.3°
Enters shadow 00:15:52 - 20° (NNE) 3,309 5.4 -11.7°
